Location: Kuppenheim
(48.8299°N, 8.2568°E)
Time: 10:28:00
(UTC+00:00)

ISS - Visible Passes

Search period start: 08 December 2022 00:00
Search period end: 18 December 2022 00:00
Orbit: 414 x 420 km, 51.6° (Epoch: 08 December)

Date Brightness Start Highest point End Pass type
(mag) Time Alt. Az. Time Alt. Az. Time Alt. Az.
08 Dec -1.5 16:04:29 10° W 16:07:26 29° SW 16:10:23 10° SSE visible
10 Dec -0.3 16:05:41 10° WSW 16:07:24 13° SW 16:09:08 10° SSW visible
16 Dec -0.6 06:25:46 10° S 06:27:58 16° SE 06:30:10 10° E visible
17 Dec -0.1 05:39:12 10° SE 05:39:51 10° SE 05:40:30 10° ESE visible
